This is the latest recevied weather packets stored in our database for station/object KB4RFE. If no packets are shown the sender has not sent any weather packets the latest 10 day(s).
| Time | Temp. | Humidity | Pressure | Rain* | Wind** | Luminosity | Snow |
|---|---|---|---|---|---|---|---|
| 1788291707 | 32.22° C | 70% | 1020.4 hPa | 0 mm | - | 690 W/m² | - |
| 1788291403 | 31.67° C | 70% | 1020.5 hPa | 0 mm | - | 706 W/m² | - |
| 1788291102 | 31.67° C | 72% | 1020.6 hPa | 0 mm | - | 718 W/m² | - |
| 1788290797 | 31.67° C | 71% | 1020.7 hPa | 0 mm | - | 730 W/m² | - |
| 1788290492 | 31.67° C | 69% | 1020.8 hPa | 0 mm | - | 741 W/m² | - |
| 1788290188 | 31.67° C | 71% | 1020.8 hPa | 0 mm | - | 751 W/m² | - |
| 1788289885 | 31.67° C | 72% | 1021 hPa | 0 mm | - | 760 W/m² | - |
| 1788289580 | 31.67° C | 70% | 1021 hPa | 0 mm | - | 768 W/m² | - |
| 1788289279 | 31.67° C | 74% | 1020.9 hPa | 0 mm | - | 776 W/m² | - |
| 1788288978 | 31.67° C | 72% | 1021.1 hPa | 0 mm | - | 784 W/m² | - |
| 1788288676 | 31.67° C | 74% | 1020.9 hPa | 0 mm | - | 791 W/m² | - |
| 1788288372 | 31.67° C | 75% | 1021.2 hPa | 0 mm | - | 797 W/m² | - |
| 1788288068 | 31.67° C | 76% | 1021.2 hPa | 0 mm | - | 805 W/m² | - |
| 1788287768 | 31.67° C | 77% | 1021 hPa | 0 mm | - | 809 W/m² | - |
| 1788287463 | 31.67° C | 77% | 1021.2 hPa | 0 mm | - | 813 W/m² | - |
| 1788287160 | 31.67° C | 73% | 1021.4 hPa | 0 mm | - | 817 W/m² | - |
| 1788286859 | 31.67° C | 76% | 1021.4 hPa | 0 mm | - | 820 W/m² | - |
| 1788286559 | 31.67° C | 74% | 1021.3 hPa | 0 mm | - | 823 W/m² | - |
| 1788286258 | 31.67° C | 75% | 1021.3 hPa | 0 mm | - | 826 W/m² | - |
| 1788285957 | 31.67° C | 76% | 1021.4 hPa | 0 mm | - | 828 W/m² | - |
| 1788285653 | 31.67° C | 74% | 1021.6 hPa | 0 mm | - | 830 W/m² | - |
| 1788285351 | 31.67° C | 75% | 1021.4 hPa | 0 mm | - | 828 W/m² | - |
| 1788285051 | 31.67° C | 75% | 1021.6 hPa | 0 mm | - | 827 W/m² | - |
| 1788284748 | 31.67° C | 74% | 1021.7 hPa | 0 mm | - | 827 W/m² | - |
| 1788284443 | 31.67° C | 74% | 1021.7 hPa | 0 mm | - | 826 W/m² | - |
* Rain latest hour (hover to see other rain measurements)
** Current wind speed in m/s (hover to see current wind gust speed)